User: anonymous   Login
Location: Unspecified
(0.0000°N, 0.0000°E)
Time: 00:27:21
(UTC+00:00)
Language:

Optus B1 - Orbit

View from above orbital plane
View from above orbital plane
View from above satellite
View from above satellite

Ground track
Ground track

The orbit data is extracted from the following two-line orbital elements,

1 22087U 92054A   15057.16012604 -.00000102  00000-0  00000+0 0  9990
2 22087 007.3533 053.1854 0008210 023.1343 152.1378 00.99206719 93737
Epoch (UTC): 26 February 2015 03:50:34
Eccentricity: 0.0008210
inclination: 7.3533°
perigee height: 36052 km
apogee height: 36122 km
right ascension of ascending node: 53.1854°
argument of perigee: 23.1343°
revolutions per day: 0.99206719
mean anomaly at epoch: 152.1378°
orbit number at epoch: 9373

The dashed part of the orbit path shows where the satellite is in the earth's shadow,  

DLR